544  
ASUS44 KEWX 300210  
RWRTX  
SOUTH TEXAS REGIONAL WEATHER ROUNDUP  
NATIONAL WEATHER SERVICE AUSTIN/SAN ANTONIO TX  
900 PM CDT TUE JUL 29 2014  
 
NOTE: "FAIR" INDICATED FEW OR NO CLOUDS BELOW 12,000 FEET WITH NO  
SIGNIFICANT WEATHER AND/OR S TO VISIBILITY
.  
 
* - THESE STATIONS ARE NOT NWS OR FAA STATIONS...AND ARE NOT SUBJECT  
TO NWS AND FAA QUALITY CONTROL.
 
 
TXZ171-172-183>190-300300-  
TEXAS HILL COUNTRY AND EDWARDS PLATEAU  
 
CITY SKY/WX TMP DP RH WIND PRES REMARKS
 
JUNCTION MOCLDY 87 68 52 E14 30.04R HX 90  
*LLANO CLOUDY 82 68 61 E6 30.09R  
BURNET CLOUDY 81 69 67 E7 30.08R  
*HORSESHOE BAY CLOUDY 82 69 64 SE3 30.06R  
*KERRVILLE CLEAR 86 58 38 SE5 30.05S  
*FREDERICKSBRG CLOUDY 84 68 59 E10 30.07R  
*ROCKSPRINGS PTCLDY 86 52 30 SE7 30.10R  
*BOERNE STAGE CLEAR 82 57 42 CALM 30.05S  
*CASTROVILLE CLEAR 91 56 29 E5 30.00F  
HONDO CLEAR 88 58 36 E7 30.01S  
*UVALDE CLEAR 91 57 32 E6 29.99R  
DEL RIO CLEAR 95 55 26 E9 29.95R HX 93  
LAUGHLIN AFB CLEAR 93 57 29 E10 29.97R HX 91  
CARRIZO SPRGS CLEAR 91 54 27 E5 29.93S  

 
 
TXZ173-191>194-202-209-217>225-228-300300-  
CENTRAL AND SOUTH CENTRAL TEXAS  
 
CITY SKY/WX TMP DP RH WIND PRES REMARKS
 
GEORGETOWN MOCLDY 82 73 74 E5 30.05R  
AUSTIN/BERGSTM MOCLDY 85 68 56 E8 30.02R  
AUSTIN/MABRY MOCLDY 85 70 60 E7 30.03S  
*AUSTIN/EXEC MOCLDY 82 72 69 E7 30.03S  
*LAGO VISTA MOCLDY 83 67 58 E9 30.07R  
SAN MARCOS PTCLDY 88 66 48 E12 30.03R HX 90  
NEW BRAUNFELS CLEAR 89 69 51 E17 29.99S HX 93  
RANDOLPH AFB PTCLDY 89 61 39 E7 30.00S  
PT SAN ANTONIO CLEAR 89 62 40 E5 29.98S  
SAN ANTONIO MOCLDY 91 61 36 SE9 30.00S HX 91  
STINSON FIELD CLEAR 91 62 37 SE5 29.97S HX 91  
*PLEASANTON CLEAR 92 61 35 SE12G18 29.97S HX 92  
*LA GRANGE PTCLDY 86 73 63 SE5 30.00S HX 93  
*GIDDINGS PTCLDY 82 70 66 CALM 30.06S  
*GONZALES PTCLDY 87 71 59 SE12G17 30.01R HX 92  

 
 
TXZ163>164-176>182-195>201-210>213-226-227-235-300300-  
SOUTHEAST TEXAS  
 
CITY SKY/WX TMP DP RH WIND PRES REMARKS
 
COLLEGE STN PTCLDY 84 71 65 NE8 30.02F  
*BRYAN PTCLDY 80 73 78 NE3 30.03S  
*CALDWELL PTCLDY 82 72 69 CALM 30.06S  
*CROCKETT PTCLDY 82 79 89 CALM 30.07S HX 93  
*BRENHAM PTCLDY 82 73 75 S3 30.03S  
HUNTSVILLE CLOUDY 81 71 71 CALM 30.04S  
CONROE MOCLDY 79 75 87 CALM 30.03F  
HOUSTON BUSH MOCLDY 78 76 93 CALM 30.02F  
HOUSTON HOBBY MOCLDY 79 74 84 CALM 30.01F  
*HOUSTON SW AP MOCLDY 79 72 80 CALM 30.03S  
PEARLAND MOCLDY 81 72 74 CALM 30.03F  
HOUSTON HOOKS MOCLDY 82 76 81 E3 30.02F  
ELLINGTON FLD MOCLDY 77 75 94 CALM 30.02F  
SUGAR LAND MOCLDY 77 74 90 CALM 30.01F  
*HOUSTON EXEC MOCLDY 81 73 78 E5 30.03S  
*CLEVELAND MUN MOCLDY 79 76 91 CALM 30.03F  
*WHARTON PTCLDY 78 73 85 E5 30.03R  

 
 
TXZ214>216-236>238-300300-  
THE UPPER TEXAS COAST  
 
CITY SKY/WX TMP DP RH WIND PRES REMARKS
 
*ORANGE PTCLDY 79 69 70 CALM 30.04S  
PORT ARTHUR PTCLDY 83 71 67 NE6 30.02S  
GALVESTON CLOUDY 83 74 74 VRB3 30.03S  
ANGLETON CLOUDY 76 74 93 CALM 30.02F  
*BAY CITY PTCLDY 77 77 100 NE6 30.01F  
PALACIOS PTCLDY 83 71 67 CALM 30.01S  

 
 
TXZ229>234-239>247-300300-  
TEXAS COASTAL BEND AND RIO GRANDE PLAINS  
 
CITY SKY/WX TMP DP RH WIND PRES REMARKS
 
VICTORIA PTCLDY 85 68 56 SE8 30.01S  
*BEEVILLE PTCLDY 86 65 49 SE10 29.98F  
ROCKPORT PTCLDY 83 76 79 SE13 29.99S HX 91  
*PORT ARANSAS PTCLDY 81 75 83 SE8 29.99F  
*PORT LAVACA PTCLDY 79 73 81 S7 30.00S  
*INGLESIDE PTCLDY 83 74 73 SE12 29.98F HX 90  
CORPUS CHRISTI MOCLDY 84 73 69 SE14 29.99F HX 90  
CORPUS NAS MOCLDY 83 77 82 SE13 29.99F HX 92  
*ROBSTOWN NOT AVBL  
ALICE PTCLDY 84 72 67 SE12 29.98S  
KINGSVILLE NAS PTCLDY 83 76 79 SE13 29.99S HX 91  
COTULLA CLEAR 93 54 26 E6 29.95S HX 91  
*FAITH RANCH CLEAR 97 52 21 E9 29.94S HX 94  
LAREDO CLEAR 98 58 26 E9 29.95S HX 97  

 
 
TXZ248>255-300300-  
DEEP SOUTH TEXAS  
 
CITY SKY/WX TMP DP RH WIND PRES REMARKS
 
BROWNSVILLE CLEAR 82 75 79 SE8 30.00R  
PORT ISABEL CLEAR 84 75 74 SE14 30.00S HX 92  
*SOUTH PADRE N/A 81 77 89 SE9 30.01R  
HARLINGEN CLEAR 83 74 74 SE12 29.99R  
*HEBBRONVILLE CLEAR 89 65 43 E15G25 29.99R HX 91  
MCALLEN CLEAR 88 71 57 SE20G25 29.97R HX 94  
*WESLACO NOT AVBL  
FALFURRIAS PTCLDY 80 67 65 E10 29.98R  
EDINBURG CLEAR 89 68 49 SE10 29.98R HX 93  
*ZAPATA NOT AVBL  

 
 
TXZ213>215-236>238-242>244-246-247-251-254-255-300300-  
CMAN STATIONS  
 
STATION/POSITION TIME TEMP WIND PRES WAVE
 
AIR SEA DIR/SP/G HT/PER  
(UTC) (F) (DEG/KT/KT) (MB) (FT/S)  
SABINE PASS 0200 83 87 40/ 5/ 6 1016.7  
SEA RIM ST PARK 0200 83 CALM / 1 1017.1  
NORTH JETTY/GLS 0200 82 90 CALM / 1 N/A  
EAGLE POINT 0200 79 87 280/ 2/ 4 1016.5  
MORGANS POINT 0200 83 92 CALM 1016.2  
MISSION/ARANSAS 0100 83 140/ 14 1017.0  
PORT O'CONNOR 0200 160/ 8/ 10 N/A  
PORT ARANSAS 0200 81 85 120/ 10/ 10 1016.4  
MALAQUITE BEACH 0200 81 80 120/ 11/ 12 1015.1  
BAFFIN BAY 0200 81 86 120/ 11/ 14 1015.7  
PORT ISABEL 0200 83 83 120/ 12/ 14 1016.2  

 
 
GMZ080-GMZ150>470-300300-  
OFFSHORE BUOY REPORTS  
 
STATION/POSITION TIME TEMP WIND PRES WAVE
 
AIR SEA DIR/SP/G HT/PER  
(UTC) (F) (DEG/KT/KT) (MB) (FT/S)  
90 E PT ARANSAS 0200 83 86 180/ 6/ 8 1016.6 1/ 5  
35 NE PT MANSFLD 0200 84 84 130/ 12/ 14 1015.6 1/ 5  
200 E PT ISABEL 0200 84 86 20/ 4/ 6 1016.8 1  

 
 
CLICK HERE TO GO TO PREVIOUS BULLETINS.

The Nexlab TX Page Main Text Page